Вернуться в каталог

ARIANE 42P R/B

АктивенLEO
NORAD 22079·ROCKET BODY·🇫🇷 France

Запущен Aug 10, 1992 с Guiana Space Centre

Loading…

Ближайшие Пролёты (ближайшие 24 часа)

TLE

СвежийSource: Space-Track

Эпоха: Sep 14, 2026, 13:49 UTC

1 22079U 92052D   26257.57600594 -.00000001  00000-0  26524-3 0  9990
2 22079  66.0645 121.5218 0076197 264.3316 110.2888 12.77965305590810

Отслеживайте ARIANE 42P R/B в реальном времени с AllMySat

Download on the App Store